Regional Weather Roundup
Issued by NWS

Home | Current Version | Previous Version | Text Only | Print | Product List | Glossary On
Versions: 1 2 3 4 5 6 7 8 9 10 11 12 13 14 15 16 17 18 19 20 21 22 23 24 25 26 27 28 29 30 31 32 33 34 35 36 37 38 39 40 41 42 43 44 45 46 47 48 49 50
000
ASUS43 KDMX 031407
RWRIA

WEATHER ROUNDUP FOR IOWA
NATIONAL WEATHER SERVICE DES MOINES IA
900 AM CDT MON AUG 03 2015

NOTE: "FAIR" INDICATES FEW OR NO CLOUDS BELOW 12,000 FEET WITH NO
SIGNIFICANT WEATHER AND/OR OBSTRUCTIONS TO VISIBILITY.

* - THESE STATIONS ARE NOT NWS STATIONS...THUS NOT UNDER NWS
QUALITY CONTROL.  THEY ALSO DO NOT REPORT WEATHER SUCH
AS PRECIPITATION OR FOG.

IAZ001>003-012>014-020>022-031>034-043>046-031500-
   NORTHWEST IOWA

CITY           SKY/WX    TMP DP  RH WIND       PRES   REMARKS
CARROLL *      SUNNY     68  63  83 CALM      29.98R
CHEROKEE *     SUNNY     66  63  88 CALM      29.99S
DENISON *      SUNNY     70  63  78 CALM      29.97R
LE MARS *      SUNNY     66  61  82 CALM      30.01R
ORANGE CITY *  SUNNY     64  61  88 CALM      30.00R
SHELDON *      SUNNY     66  59  77 CALM      29.99R
SPENCER          N/A     67  56  67 W3        29.99R
STORM LAKE *   SUNNY     68  59  73 CALM      30.00R
$$

IAZ055>058-069>071-079>083-090>094-031500-
   SOUTHWEST IOWA

CITY           SKY/WX    TMP DP  RH WIND       PRES   REMARKS
ATLANTIC *     MOSUNNY   70  63  78 E7        29.98R
AUDUBON *      SUNNY     70  63  78 NE3       29.99R
CLARINDA *     CLOUDY    70  64  83 N3        29.98S
COUNCIL BLFS * PTSUNNY   72  61  68 E8        30.00R
CRESTON *      CLOUDY    70  61  73 E7        30.00R
HARLAN  *      SUNNY     70  68  94 NE5       30.02R
LAMONI         LGT RAIN  73  62  68 NE6       29.98R
RED OAK *      CLOUDY    72  64  78 E7        29.98R
SHENANDOAH *   CLOUDY    72  63  73 E8        29.97R
$$

IAZ047>049-059>061-072>074-084-031500-
   CENTRAL IOWA

CITY           SKY/WX    TMP DP  RH WIND       PRES   REMARKS
AMES           SUNNY     69  59  70 N3        29.96R
ANKENY *       SUNNY     70  59  68 CALM      29.96R
CHARITON *     MOSUNNY   72  59  64 NE6       29.96R
DES MOINES     MOSUNNY   74  56  53 N6        29.96R
GRINNELL*      SUNNY     68  59  73 NW5       29.96R
KNOXVILLE *    SUNNY     70  55  60 N6        29.95R
MARSHALLTOWN   SUNNY     68  59  73 NW3       29.95R
PELLA *        SUNNY     70  61  73 N3        29.97R
PERRY *          N/A     70  63  78 CALM      29.98R
$$

IAZ004>006-015-016-023>025-035-036-031500-
   NORTH CENTRAL IOWA

CITY           SKY/WX    TMP DP  RH WIND       PRES   REMARKS
ALGONA *       SUNNY     68  59  73 W5        29.97R
CLARION *      SUNNY     64  59  82 CALM      29.96S
ESTHERVILLE    SUNNY     66  57  72 W3        29.98R
FORT DODGE *   SUNNY     66  59  77 CALM      29.98R
MASON CITY     SUNNY     66  58  75 W7        29.97R
FOREST CITY *  SUNNY     64  59  82 CALM      29.96S
IOWA FALLS *     N/A     66  59  77 NW3       29.97R
$$

IAZ007>011-017>019-026>030-037>042-050>054-066-031500-
   NORTHEAST IOWA

CITY           SKY/WX    TMP DP  RH WIND       PRES   REMARKS
CEDAR RAPIDS   SUNNY     68  61  78 NW5       29.92R
CHARLES CITY * SUNNY     66  59  77 W5        29.95S
CLINTON *      SUNNY     70  59  68 N8        29.93R
DECORAH *      SUNNY     64  57  77 VRB3      29.92S
DUBUQUE        SUNNY     70  54  56 NW5       29.91R
MONTICELLO *   SUNNY     70  59  68 NW5       29.92R
OELWEIN *      SUNNY     66  59  77 NW5       29.94
WATERLOO       SUNNY     67  58  72 N5        29.93S
$$

IAZ064-065-067-068-078-031500-
   EAST CENTRAL IOWA

CITY           SKY/WX    TMP DP  RH WIND       PRES   REMARKS
DAVENPORT      SUNNY     72  58  61 N10       29.91R
IOWA CITY      SUNNY     72  56  57 NE9       29.93R
MT. PLEASANT * SUNNY     73  55  53 N7        29.93R
MUSCATINE *    SUNNY     73  57  56 N8        29.91R
QUAD CITIES    SUNNY     74  56  53 N9        29.89R
$$

IAZ062-063-075>077-085>089-095>099-031500-
   SOUTHEAST IOWA

CITY           SKY/WX    TMP DP  RH WIND       PRES   REMARKS
BURLINGTON     SUNNY     73  62  68 N8        29.91R
FAIRFIELD *    SUNNY     70  61  73 N8        29.94R
FORT MADISON * SUNNY     72  63  73 N9        29.93R
KEOKUK *       SUNNY     73  63  68 N7G13     29.91R
OSKALOOSA *      N/A     70  59  68 N3        29.95S
CENTERVILLE *  SUNNY     72  59  64 N6        29.97R
OTTUMWA        MOSUNNY   70  60  70 N8        29.93R
WASHINGTON *   SUNNY     70  61  73 N7        29.95R
$$

ABBREVIATIONS USED IN REMARKS
   TC - TEMPERATURES IN CELSIUS
  WCI - WIND CHILL INDEX
   HX - HEAT INDEX
  VSB - VISIBILITY
$$



USA.gov is the U.S. government's official web portal to all federal, state and local government web resources and services.